Time,TemperatureF,DewpointF,PressureIn,WindDirection,WindDirectionDegrees,WindSpeedMPH,WindSpeedGustMPH,Humidity,HourlyPrecipIn,Conditions,Clouds,dailyrainin,SoftwareType,DateUTC
2013-01-31 06:20:00,27.0,23.9,29.82,West,270,3.0,17.0,88,0.00,,,-99.99,Weather View 32 v60,2013-01-31 11:20:00,
2013-01-31 06:25:00,27.0,23.1,29.82,SW,225,10.0,17.0,85,0.00,,,-99.99,Weather View 32 v60,2013-01-31 11:25:00,
2013-01-31 06:30:00,27.0,23.6,29.82,WSW,247,1.0,17.0,87,0.00,,,-99.99,Weather View 32 v60,2013-01-31 11:30:00,
2013-01-31 06:35:00,27.0,23.6,29.82,West,270,6.0,17.0,87,0.00,,,-99.99,Weather View 32 v60,2013-01-31 11:35:00,
2013-01-31 06:40:00,27.0,24.5,29.83,SW,225,7.0,17.0,90,0.00,,,-99.99,Weather View 32 v60,2013-01-31 11:40:00,
2013-01-31 06:45:00,26.0,24.3,29.83,WNW,292,9.0,17.0,93,0.00,,,-99.99,Weather View 32 v60,2013-01-31 11:45:00,
2013-01-31 06:50:00,26.0,25.5,29.84,SW,225,10.0,17.0,98,0.00,,,-99.99,Weather View 32 v60,2013-01-31 11:50:00,
2013-01-31 06:55:00,26.0,26.0,29.84,SW,225,8.0,17.0,100,0.00,,,-99.99,Weather View 32 v60,2013-01-31 11:55:00,
2013-01-31 07:00:00,26.0,26.0,29.84,WSW,247,7.0,17.0,100,0.00,,,-99.99,Weather View 32 v60,2013-01-31 12:00:00,
2013-01-31 07:05:00,26.0,26.0,29.84,WSW,247,9.0,17.0,100,0.00,,,-99.99,Weather View 32 v60,2013-01-31 12:05:00,
2013-01-31 07:10:00,26.0,26.0,29.85,WSW,247,9.0,18.0,100,0.00,,,-99.99,Weather View 32 v60,2013-01-31 12:10:00,
2013-01-31 07:15:00,26.0,26.0,29.85,SW,225,3.0,18.0,100,0.00,,,-99.99,Weather View 32 v60,2013-01-31 12:15:00,
2013-01-31 07:20:00,26.0,26.0,29.84,SW,225,8.0,18.0,100,0.00,,,-99.99,Weather View 32 v60,2013-01-31 12:20:00,
2013-01-31 07:25:00,26.0,26.0,29.84,WSW,247,4.0,18.0,100,0.00,,,-99.99,Weather View 32 v60,2013-01-31 12:25:00,
2013-01-31 07:30:00,26.0,26.0,29.85,WSW,247,7.0,18.0,100,0.00,,,-99.99,Weather View 32 v60,2013-01-31 12:30:00,
2013-01-31 07:35:00,26.0,26.0,29.85,WSW,247,10.0,18.0,100,0.00,,,-99.99,Weather View 32 v60,2013-01-31 12:35:00,
2013-01-31 07:40:00,26.0,26.0,29.86,WSW,247,6.0,18.0,100,0.00,,,-99.99,Weather View 32 v60,2013-01-31 12:40:00,
2013-01-31 07:45:00,26.0,26.0,29.86,WSW,247,9.0,18.0,100,0.00,,,-99.99,Weather View 32 v60,2013-01-31 12:45:00,
2013-01-31 07:50:00,26.0,26.0,29.86,SW,225,10.0,18.0,100,0.00,,,-99.99,Weather View 32 v60,2013-01-31 12:50:00,
2013-01-31 07:55:00,26.0,26.0,29.86,West,270,9.0,18.0,100,0.00,,,-99.99,Weather View 32 v60,2013-01-31 12:55:00,
2013-01-31 08:00:00,26.0,26.0,29.87,West,270,3.0,18.0,100,0.00,,,-99.99,Weather View 32 v60,2013-01-31 13:00:00,
2013-01-31 08:05:00,26.0,26.0,29.87,SW,225,7.0,18.0,100,0.00,,,-99.99,Weather View 32 v60,2013-01-31 13:05:00,
2013-01-31 08:10:00,26.0,26.0,29.88,West,270,3.0,16.0,100,0.00,,,-99.99,Weather View 32 v60,2013-01-31 13:10:00,
2013-01-31 08:15:00,26.0,26.0,29.88,SW,225,5.0,16.0,100,0.00,,,-99.99,Weather View 32 v60,2013-01-31 13:15:00,
2013-01-31 08:20:00,26.0,26.0,29.88,West,270,8.0,16.0,100,0.00,,,-99.99,Weather View 32 v60,2013-01-31 13:20:00,
2013-01-31 08:25:00,26.0,26.0,29.88,WSW,247,12.0,16.0,100,0.00,,,-99.99,Weather View 32 v60,2013-01-31 13:25:00,
2013-01-31 08:30:00,26.0,26.0,29.89,WSW,247,6.0,16.0,100,0.00,,,-99.99,Weather View 32 v60,2013-01-31 13:30:00,
2013-01-31 08:35:00,26.0,26.0,29.89,WSW,247,4.0,16.0,100,0.00,,,-99.99,Weather View 32 v60,2013-01-31 13:35:00,
2013-01-31 08:40:00,26.0,26.0,29.89,West,270,8.0,15.0,100,0.00,,,-99.99,Weather View 32 v60,2013-01-31 13:40:00,
2013-01-31 08:45:00,26.0,26.0,29.89,WSW,247,5.0,15.0,100,0.00,,,-99.99,Weather View 32 v60,2013-01-31 13:45:00,
2013-01-31 08:50:00,26.0,26.0,29.90,WSW,247,10.0,18.0,100,0.00,,,-99.99,Weather View 32 v60,2013-01-31 13:50:00,
2013-01-31 08:55:00,26.0,26.0,29.90,West,270,9.0,18.0,100,0.00,,,-99.99,Weather View 32 v60,2013-01-31 13:55:00,
2013-01-31 09:00:00,27.0,27.0,29.89,SW,225,14.0,18.0,100,0.00,,,-99.99,Weather View 32 v60,2013-01-31 14:00:00,
2013-01-31 09:05:00,27.0,27.0,29.89,West,270,5.0,18.0,100,0.00,,,-99.99,Weather View 32 v60,2013-01-31 14:05:00,
2013-01-31 09:10:00,27.0,27.0,29.90,West,270,9.0,18.0,100,0.00,,,-99.99,Weather View 32 v60,2013-01-31 14:10:00,
2013-01-31 09:15:00,27.0,27.0,29.90,SW,225,5.0,18.0,100,0.00,,,-99.99,Weather View 32 v60,2013-01-31 14:15:00,
2013-01-31 09:20:00,27.0,27.0,29.90,WSW,247,7.0,18.0,100,0.00,,,-99.99,Weather View 32 v60,2013-01-31 14:20:00,
2013-01-31 09:25:00,26.0,26.0,29.90,West,270,6.0,18.0,100,0.00,,,-99.99,Weather View 32 v60,2013-01-31 14:25:00,
2013-01-31 09:30:00,26.0,26.0,29.90,WSW,247,10.0,18.0,100,0.00,,,-99.99,Weather View 32 v60,2013-01-31 14:30:00,
2013-01-31 09:35:00,26.0,26.0,29.90,SW,225,6.0,18.0,100,0.00,,,-99.99,Weather View 32 v60,2013-01-31 14:35:00,
2013-01-31 09:40:00,26.0,26.0,29.90,SW,225,8.0,18.0,100,0.00,,,-99.99,Weather View 32 v60,2013-01-31 14:40:00,
2013-01-31 09:45:00,26.0,26.0,29.90,WNW,292,3.0,18.0,100,0.00,,,-99.99,Weather View 32 v60,2013-01-31 14:45:00,
2013-01-31 09:50:00,26.0,26.0,29.91,SW,225,5.0,18.0,100,0.00,,,-99.99,Weather View 32 v60,2013-01-31 14:50:00,
2013-01-31 09:55:00,26.0,26.0,29.91,WSW,247,8.0,16.0,100,0.00,,,-99.99,Weather View 32 v60,2013-01-31 14:55:00,
2013-01-31 10:00:00,26.0,26.0,29.91,WSW,247,8.0,16.0,100,0.00,,,-99.99,Weather View 32 v60,2013-01-31 15:00:00,
2013-01-31 10:05:00,26.0,26.0,29.91,SW,225,10.0,15.0,100,0.00,,,-99.99,Weather View 32 v60,2013-01-31 15:05:00,
2013-01-31 10:10:00,25.0,25.0,29.92,SW,225,7.0,15.0,100,0.00,,,-99.99,Weather View 32 v60,2013-01-31 15:10:00,
2013-01-31 10:15:00,25.0,25.0,29.92,SW,225,0.0,15.0,100,0.00,,,-99.99,Weather View 32 v60,2013-01-31 15:15:00,
2013-01-31 10:20:00,25.0,25.0,29.93,WSW,247,10.0,15.0,100,0.00,,,-99.99,Weather View 32 v60,2013-01-31 15:20:00,
2013-01-31 10:25:00,25.0,25.0,29.93,West,270,9.0,15.0,100,0.00,,,-99.99,Weather View 32 v60,2013-01-31 15:25:00,
2013-01-31 10:30:00,25.0,25.0,29.93,SW,225,7.0,15.0,100,0.00,,,-99.99,Weather View 32 v60,2013-01-31 15:30:00,
2013-01-31 10:35:00,26.0,26.0,29.93,SW,225,3.0,15.0,100,0.00,,,-99.99,Weather View 32 v60,2013-01-31 15:35:00,
2013-01-31 10:40:00,27.0,27.0,29.93,West,270,6.0,15.0,100,0.00,,,-99.99,Weather View 32 v60,2013-01-31 15:40:00,
2013-01-31 10:45:00,28.0,28.0,29.93,WSW,247,12.0,15.0,100,0.00,,,-99.99,Weather View 32 v60,2013-01-31 15:45:00,
2013-01-31 10:50:00,27.0,27.0,29.91,SW,225,6.0,16.0,100,0.00,,,-99.99,Weather View 32 v60,2013-01-31 15:50:00,
2013-01-31 10:55:00,28.0,28.0,29.91,West,270,5.0,17.0,100,0.00,,,-99.99,Weather View 32 v60,2013-01-31 15:55:00,
2013-01-31 11:00:00,28.0,28.0,29.91,WSW,247,7.0,17.0,100,0.00,,,-99.99,Weather View 32 v60,2013-01-31 16:00:00,
2013-01-31 11:05:00,28.0,28.0,29.91,West,270,7.0,17.0,100,0.00,,,-99.99,Weather View 32 v60,2013-01-31 16:05:00,
2013-01-31 11:10:00,28.0,28.0,29.92,SW,225,5.0,20.0,100,0.00,,,-99.99,Weather View 32 v60,2013-01-31 16:10:00,
2013-01-31 11:15:00,28.0,27.5,29.92,WSW,247,11.0,20.0,98,0.00,,,-99.99,Weather View 32 v60,2013-01-31 16:15:00,
2013-01-31 11:20:00,28.0,27.8,29.92,WSW,247,3.0,20.0,99,0.00,,,-99.99,Weather View 32 v60,2013-01-31 16:20:00,
2013-01-31 11:25:00,28.0,27.3,29.92,SW,225,5.0,20.0,97,0.00,,,-99.99,Weather View 32 v60,2013-01-31 16:25:00,
2013-01-31 11:30:00,28.0,26.2,29.91,West,270,8.0,21.0,93,0.00,,,-99.99,Weather View 32 v60,2013-01-31 16:30:00,
2013-01-31 11:35:00,28.0,28.0,29.91,SW,225,14.0,21.0,100,0.00,,,-99.99,Weather View 32 v60,2013-01-31 16:35:00,
2013-01-31 11:40:00,28.0,28.0,29.91,West,270,9.0,21.0,100,0.00,,,-99.99,Weather View 32 v60,2013-01-31 16:40:00,
2013-01-31 11:45:00,28.0,28.0,29.91,WSW,247,8.0,21.0,100,0.00,,,-99.99,Weather View 32 v60,2013-01-31 16:45:00,
2013-01-31 11:50:00,29.0,29.0,29.91,WNW,292,5.0,21.0,100,0.00,,,-99.99,Weather View 32 v60,2013-01-31 16:50:00,
2013-01-31 11:55:00,29.0,29.0,29.91,WSW,247,9.0,21.0,100,0.00,,,-99.99,Weather View 32 v60,2013-01-31 16:55:00,
2013-01-31 12:00:00,29.0,29.0,29.90,SW,225,15.0,21.0,100,0.00,,,-99.99,Weather View 32 v60,2013-01-31 17:00:00,
2013-01-31 12:05:00,29.0,29.0,29.90,West,270,6.0,21.0,100,0.00,,,-99.99,Weather View 32 v60,2013-01-31 17:05:00,
2013-01-31 12:10:00,28.0,28.0,29.90,SW,225,12.0,21.0,100,0.00,,,-99.99,Weather View 32 v60,2013-01-31 17:10:00,
2013-01-31 12:15:00,28.0,28.0,29.90,WSW,247,7.0,21.0,100,0.00,,,-99.99,Weather View 32 v60,2013-01-31 17:15:00,
2013-01-31 21:00:00,29.0,29.0,29.85,SW,225,4.0,6.0,100,0.00,,,-99.99,Weather View 32 v60,2013-02-01 02:00:00,
2013-01-31 21:05:00,29.0,29.0,29.85,WSW,247,5.0,8.0,100,0.00,,,-99.99,Weather View 32 v60,2013-02-01 02:05:00,
2013-01-31 21:10:00,30.0,30.0,29.85,SW,225,3.0,8.0,100,0.00,,,-99.99,Weather View 32 v60,2013-02-01 02:10:00,
2013-01-31 21:15:00,30.0,30.0,29.85,WSW,247,4.0,8.0,100,0.00,,,-99.99,Weather View 32 v60,2013-02-01 02:15:00,
2013-01-31 21:20:00,30.0,30.0,29.84,WSW,247,6.0,8.0,100,0.00,,,-99.99,Weather View 32 v60,2013-02-01 02:20:00,
2013-01-31 21:25:00,30.0,30.0,29.84,WSW,247,5.0,10.0,100,0.00,,,-99.99,Weather View 32 v60,2013-02-01 02:25:00,
2013-01-31 21:35:00,30.0,30.0,29.85,West,270,1.0,10.0,100,0.00,,,-99.99,Weather View 32 v60,2013-02-01 02:35:00,
2013-01-31 21:45:00,30.0,30.0,29.85,WSW,247,9.0,14.0,100,0.00,,,-99.99,Weather View 32 v60,2013-02-01 02:45:00,
2013-01-31 21:55:00,29.0,29.0,29.86,WSW,247,8.0,14.0,100,0.00,,,-99.99,Weather View 32 v60,2013-02-01 02:55:00,
2013-01-31 22:05:00,29.0,29.0,29.86,West,270,6.0,20.0,100,0.00,,,-99.99,Weather View 32 v60,2013-02-01 03:05:00,
2013-01-31 22:10:00,27.0,27.0,29.90,NNW,337,4.0,22.0,100,0.00,,,-99.99,Weather View 32 v60,2013-02-01 03:10:00,
2013-01-31 22:25:00,22.0,22.0,29.92,WNW,292,5.0,22.0,100,0.00,,,-99.99,Weather View 32 v60,2013-02-01 03:25:00,
2013-01-31 22:29:00,30.0,30.0,29.85,West,270,6.0,10.0,100,0.00,,,-99.99,Weather View 32 v60,2013-02-01 03:29:00,
2013-01-31 22:39:00,30.0,30.0,29.85,SW,225,8.0,12.0,100,0.00,,,-99.99,Weather View 32 v60,2013-02-01 03:39:00,
2013-01-31 22:49:00,30.0,30.0,29.86,SW,225,8.0,14.0,100,0.00,,,-99.99,Weather View 32 v60,2013-02-01 03:49:00,
2013-01-31 22:59:00,29.0,29.0,29.86,NW,315,10.0,20.0,100,0.00,,,-99.99,Weather View 32 v60,2013-02-01 03:59:00,
2013-01-31 23:05:00,20.0,20.0,29.96,NNW,337,4.0,22.0,100,0.00,,,-99.99,Weather View 32 v60,2013-02-01 04:05:00,
2013-01-31 23:10:00,20.0,20.0,29.97,West,270,4.0,15.0,100,0.00,,,-99.99,Weather View 32 v60,2013-02-01 04:10:00,
2013-01-31 23:14:00,24.0,24.0,29.90,NW,315,8.0,22.0,100,0.00,,,-99.99,Weather View 32 v60,2013-02-01 04:14:00,
2013-01-31 23:15:00,20.0,20.0,29.97,West,270,1.0,15.0,100,0.00,,,-99.99,Weather View 32 v60,2013-02-01 04:15:00,
2013-01-31 23:20:00,20.0,20.0,29.98,NNE,22,2.0,15.0,100,0.00,,,-99.99,Weather View 32 v60,2013-02-01 04:20:00,
2013-01-31 23:25:00,19.0,19.0,29.98,NW,315,4.0,15.0,100,0.00,,,-99.99,Weather View 32 v60,2013-02-01 04:25:00,
2013-01-31 23:29:00,21.0,21.0,29.93,North,360,2.0,22.0,100,0.00,,,-99.99,Weather View 32 v60,2013-02-01 04:29:00,
2013-01-31 23:30:00,19.0,19.0,29.99,West,270,8.0,15.0,100,0.00,,,-99.99,Weather View 32 v60,2013-02-01 04:30:00,
2013-01-31 23:34:00,21.0,21.0,29.93,East,90,0.0,22.0,100,0.00,,,-99.99,Weather View 32 v60,2013-02-01 04:34:00,
2013-01-31 23:35:00,19.0,19.0,29.99,WSW,247,0.0,15.0,100,0.00,,,-99.99,Weather View 32 v60,2013-02-01 04:35:00,
2013-01-31 23:39:00,21.0,21.0,29.95,WNW,292,3.0,22.0,100,0.00,,,-99.99,Weather View 32 v60,2013-02-01 04:39:00,
2013-01-31 23:40:00,18.0,18.0,30.00,WSW,247,3.0,14.0,100,0.00,,,-99.99,Weather View 32 v60,2013-02-01 04:40:00,
2013-01-31 23:44:00,20.0,20.0,29.95,NNE,22,0.0,22.0,100,0.00,,,-99.99,Weather View 32 v60,2013-02-01 04:44:00,
2013-01-31 23:45:00,18.0,18.0,30.00,WSW,247,4.0,14.0,100,0.00,,,-99.99,Weather View 32 v60,2013-02-01 04:45:00,
2013-01-31 23:50:00,18.0,18.0,30.01,NW,315,1.0,14.0,100,0.00,,,-99.99,Weather View 32 v60,2013-02-01 04:50:00,
2013-01-31 23:54:00,20.0,20.0,29.96,West,270,2.0,22.0,100,0.00,,,-99.99,Weather View 32 v60,2013-02-01 04:54:00,
2013-01-31 23:55:00,17.0,17.0,30.01,NW,315,3.0,14.0,100,0.00,,,-99.99,Weather View 32 v60,2013-02-01 04:55:00,
2013-01-31 23:59:00,20.0,20.0,29.96,NW,315,0.0,22.0,100,0.00,,,-99.99,Weather View 32 v60,2013-02-01 04:59:00,